Location: Six Mile Lake
(44.9000°N, 79.7170°W)
Time: 06:15:13
(UTC-04:00)

EO-79 - Pass Details

Date: 28 June 2022
Orbit: 588 x 603 km, 98.0° (Epoch: 14 August)

Event Time Altitude Azimuth Distance (km) Brightness Sun altitude
Rises 02:53:58 0° 15° (NNE) 2,851 ? -18.7°
Reaches altitude 10° 02:56:09 10° 18° (NNE) 1,947 ? -18.5°
Maximum altitude 03:00:21 67° 101° (ESE) 654 ? -18.2°
Enters shadow 03:02:01 35° 173° (S) 976 ? -18.1°
